RH
87 92 91 93 93 92 88 88 78 77 81 90 96 95 95 91 90 85 74 69 68 67 71 70 69 67 68 68 66 68 70 84 82 77 64 62 62 61 62 61 65 69 72
86 93 90 97 94 91 83 89 85 77 78 85 85 92 96 95 92 91 83 74 75 75 73 71 70 67 71 72 77 81 86 72 75 68 75 73 57 62 65 63 65 68 68
65 71 88 94 94 92 90 86 84 83 78 86 92 95 95 95 94 92 91 90 86 87 87 87 83 79 80 86 87 88 80 78 80 76 69 76 74 73 68 70 66 66 70
60 57 61 70 87 95 90 85 81 83 84 93 91 89 92 92 90 88 96 97 95 97 98 98 97 95 97 98 99 94 90 88 87 86 82 81 81 79 74 73 72 68 69
61 60 56 57 67 69 90 95 97 97 88 89 88 92 91 94 87 91 98 97 98 97 99 99 98 99 98 98 97 97 95 93 88 86 84 81 86 86 86 77 79 75 71
59 53 52 52 51 58 60 77 90 93 95 95 96 95 94 92 97 98 98 98 98 98 97 97 97 96 96 96 93 90 87 88 88 84 82 81 74 76 83 88 83 80 79
52 53 52 53 52 56 60 58 64 74 90 96 94 94 96 95 96 97 98 97 97 97 97 94 97 96 95 88 80 80 79 78 80 84 85 82 81 80 80 85 85 85 84
50 50 51 55 56 56 54 58 59 67 87 91 93 92 94 96 94 95 95 94 93 93 93 97 93 90 88 83 86 92 89 84 86 84 89 87 85 85 86 90 88 86 83
52 51 57 62 61 58 55 57 61 70 85 86 86 88 91 93 93 94 92 92 92 92 92 87 88 87 83 80 78 75 74 80 84 88 88 87 83 83 83 85 87 86 86
50 50 50 63 70 71 72 68 68 70 80 85 81 84 86 89 91 92 94 91 89 86 85 82 81 77 72 69 71 75 79 80 83 85 82 83 84 84 84 85 87 92 96
54 54 56 62 71 74 77 74 74 74 77 78 78 81 86 87 89 89 88 85 80 78 75 71 68 69 70 68 70 73 74 74 79 81 84 83 82 82 79 82 88 91 92
53 54 57 62 64 71 74 75 75 74 76 76 75 78 81 81 80 77 74 71 71 67 65 64 65 65 68 68 70 75 76 77 79 83 88 86 81 82 76 79 83 86 86
50 47 50 55 62 66 72 74 76 76 77 77 77 78 78 75 75 72 69 67 66 67 67 67 68 70 72 73 77 75 74 76 77 80 83 81 78 78 78 79 82 84 83
53 50 50 52 58 64 70 74 75 78 79 79 78 78 76 74 72 71 69 69 66 68 70 70 72 74 75 76 77 77 76 78 77 78 77 75 75 77 83 86 87 86 90
52 53 53 53 58 63 66 73 77 78 80 80 81 80 76 73 72 72 71 71 70 70 72 74 76 76 74 74 78 79 79 79 78 77 75 80 83 82 81 80 86 87 91
56 58 58 57 56 57 59 68 74 80 83 82 81 80 78 78 77 77 76 74 75 76 77 77 78 82 74 80 82 80 80 82 81 84 86 83 81 80 76 74 74 77 89
62 61 61 60 60 61 63 63 67 74 84 84 81 80 78 78 79 78 79 81 82 82 83 81 80 80 77 79 81 83 82 86 91 91 87 76 78 77 81 79 74 74 73
65 64 63 64 62 65 66 67 70 76 84 85 84 82 81 81 82 83 83 84 83 83 84 85 84 83 80 82 83 83 100 100 99 96 87 79 71 75 69 59 62 67 66
67 67 66 67 68 68 67 73 77 78 84 86 86 85 83 83 84 87 88 94 89 90 93 88 92 87 84 82 85 91 87 88 89 80 70 62 59 58 72 62 63 61 70
68 71 68 71 73 67 74 81 78 82 84 82 83 84 85 83 84 85 88 90 87 97 98 96 89 88 84 83 83 86 82 83 84 76 72 76 56 60 67 58 55 56 63
79 75 76 76 73 70 77 82 81 86 78 85 87 88 86 85 82 88 90 93 99 98 98 96 92 86 83 82 82 88 80 80 80 76 70 62 73 65 63 64 56 51 57
69 70 75 81 76 75 82 82 84 79 87 88 90 90 89 86 89 90 93 91 94 96 96 95 94 86 82 86 81 82 83 80 78 76 64 60 72 70 65 66 57 53 64
60 62 68 74 77 80 83 86 80 83 88 91 91 89 89 87 87 89 92 92 89 91 94 91 90 89 84 78 82 78 81 66 60 55 60 68 68 73 67 71 62 59 63
76 79 82 80 81 79 81 82 79 84 90 93 90 88 88 90 87 83 86 89 90 88 89 92 92 89 88 85 79 82 78 78 75 68 66 62 64 65 72 69 71 73 66
86 88 91 91 86 73 74 78 84 89 95 94 92 91 87 91 91 85 86 87 86 84 89 87 88 93 93 88 83 81 84 82 80 76 67 67 69 70 77 70 68 69 75
87 93 95 96 95 82 82 84 87 89 89 94 94 92 91 93 93 96 97 86 88 88 86 87 87 88 81 82 83 83 80 79 78 73 68 66 69 72 70 71 64 60 67
Wind_Speed
8 10 5 10 11 4 7 2 3 8 5 4 5 4 5 4 3 4 7 10 9 10 9 7 7 7 8 9 9 6 7 4 4 3 1 1 2 2 2 3 3 4 4
7 11 12 11 16 17 16 7 12 11 10 6 5 3 3 2 2 6 7 9 9 9 10 10 9 10 7 9 9 7 3 4 3 2 1 2 2 2 3 3 4 5 3
10 8 8 9 13 17 15 18 17 14 11 9 4 3 3 2 3 3 3 4 5 4 5 6 5 7 7 5 5 4 4 3 2 2 2 1 3 2 2 4 3 3 3
2 4 5 4 5 8 17 18 17 17 11 6 5 6 5 4 3 2 2 4 5 5 1 4 4 3 3 1 2 2 2 2 3 1 1 2 1 4 3 2 2 3 3
3 4 4 4 4 3 4 5 8 11 13 14 17 13 9 7 9 5 3 5 6 8 6 3 7 6 5 5 5 2 2 2 2 1 1 0 1 3 6 5 3 1 1
4 4 1 3 3 3 5 5 7 7 6 8 9 9 9 9 8 7 6 5 4 6 8 7 8 7 8 7 2 1 4 4 3 1 1 3 2 2 3 5 4 5 2
5 3 4 4 3 4 5 4 6 6 5 7 8 7 6 6 8 8 7 8 6 5 8 10 9 8 8 6 3 4 3 1 1 3 1 3 3 3 4 3 4 4 2
1 2 4 6 6 4 2 4 5 5 4 5 6 5 5 4 5 8 8 7 7 8 11 10 9 13 14 14 9 4 5 3 2 2 3 2 2 3 2 2 2 4 4
6 6 5 4 5 5 5 4 5 5 5 5 3 3 4 6 7 8 8 7 7 8 10 10 7 6 7 6 7 4 4 5 6 4 3 3 1 2 2 3 4 4 4
5 5 4 3 3 4 4 2 3 5 6 8 6 5 5 5 5 6 8 9 8 9 9 9 7 7 7 7 6 4 2 2 1 2 3 4 2 2 2 2 2 4 4
4 4 4 5 4 2 3 3 1 3 4 4 4 6 5 6 6 6 7 9 9 9 9 8 8 7 7 6 6 4 4 2 0 1 2 2 3 2 2 1 0 2 2
6 5 5 6 6 6 4 2 2 2 2 4 4 5 5 6 7 8 8 9 8 7 8 9 9 9 7 7 6 5 4 3 3 2 3 2 1 2 1 1 1 2 2
6 5 6 5 6 6 4 3 1 2 4 5 5 5 6 7 7 7 8 9 10 9 9 9 8 8 8 7 5 5 5 5 4 3 3 3 4 3 2 2 2 2 1
5 4 4 5 5 6 7 6 5 2 2 4 5 5 6 7 7 8 9 9 9 10 9 8 8 8 7 6 7 7 5 5 4 3 3 3 2 2 2 2 2 2 1
7 7 6 5 5 5 5 6 7 6 3 4 5 7 6 6 7 8 8 8 8 7 8 10 9 7 7 6 6 6 5 4 4 3 2 3 1 0 1 2 2 2 2
7 7 6 7 6 4 3 4 5 6 5 6 7 4 6 7 6 6 8 9 9 8 8 7 8 8 5 10 10 8 5 4 3 4 3 2 2 2 2 2 2 2 2
6 8 7 6 6 6 5 5 4 3 7 8 8 8 8 8 9 9 9 8 9 9 8 8 8 7 6 9 8 9 5 5 4 4 4 3 2 4 4 7 8 7 4
11 11 9 10 8 5 6 5 5 5 6 8 10 10 11 11 11 11 10 9 9 10 10 9 8 8 6 10 8 7 5 3 5 4 4 3 4 3 4 4 4 4 3
10 9 9 9 9 10 7 5 6 6 5 8 10 12 12 12 12 12 11 7 9 7 6 6 7 8 6 9 8 9 5 4 4 3 3 3 3 5 7 4 4 4 3
13 13 13 11 10 12 5 6 9 5 8 10 10 10 12 13 14 13 13 7 7 7 7 6 7 8 6 8 10 8 4 5 4 3 3 7 6 8 10 5 5 4 4
15 15 13 14 14 13 9 11 9 10 9 6 8 9 11 13 12 11 7 9 7 7 6 6 5 6 7 6 11 14 6 5 5 5 5 4 9 9 9 8 5 4 6
16 15 15 15 14 12 9 13 13 10 6 7 8 10 11 10 10 12 9 10 10 9 8 7 6 5 6 10 12 13 10 9 6 6 4 5 9 10 9 8 7 7 8
15 14 14 17 15 12 10 14 16 7 6 6 9 10 10 10 11 12 11 9 10 8 8 7 6 6 5 6 13 13 14 12 5 4 6 9 9 10 8 10 9 9 5
16 15 17 17 15 11 12 13 14 8 7 7 7 8 10 10 10 8 9 9 9 8 7 7 6 6 6 6 5 5 6 13 9 8 5 6 7 7 5 4 6 4 5
15 15 15 15 19 16 15 11 9 5 6 5 5 7 7 10 9 7 8 8 7 9 9 7 6 7 6 7 10 10 6 5 7 7 3 3 3 4 4 3 3 4 4
17 17 16 17 17 18 15 7 5 5 7 5 5 6 7 7 7 8 6 7 10 14 12 12 8 5 6 12 17 17 17 16 15 4 4 5 5 6 6 6 5 5 6
Wind_Direction
146 137 208 146 151 196 233 204 146 225 219 183 176 172 199 220 214 225 213 204 216 219 215 219 207 199 195 201 199 201 211 216 205 236 271 289 305 6 27 15 28 51 70
119 180 184 176 182 183 201 201 239 229 221 205 197 173 176 127 164 202 199 212 210 203 209 216 205 199 208 206 200 195 180 212 178 194 121 296 292 67 54 58 59 50 66
141 151 170 170 182 186 186 212 219 226 232 211 154 105 100 168 179 228 223 214 211 211 212 213 213 198 197 202 205 207 232 196 138 90 237 231 233 289 128 61 68 78 78
135 120 145 156 205 194 187 203 204 210 219 188 221 191 188 206 222 279 114 127 116 98 120 200 218 160 102 179 55 34 65 104 207 136 278 274 192 246 253 139 73 79 102
190 189 170 168 212 218 177 191 199 196 206 206 205 222 197 178 224 242 112 126 118 114 89 109 118 88 79 66 47 26 232 183 66 250 184 223 283 259 253 271 199 186 107
245 255 279 173 179 192 191 209 220 240 214 203 202 202 205 201 185 192 166 170 141 119 113 110 95 69 75 60 39 123 41 46 125 158 240 215 207 206 228 249 249 257 198
233 269 307 296 258 209 202 203 212 219 207 209 210 203 203 175 182 179 165 163 153 143 137 128 125 115 110 145 213 92 78 88 138 167 200 255 242 230 238 255 276 268 188
17 10 347 316 309 308 271 212 218 214 196 190 200 198 190 152 171 183 167 187 170 155 158 146 153 162 160 171 156 127 141 172 234 194 187 222 240 227 213 217 253 272 243
55 54 31 354 331 316 296 238 212 191 187 187 164 173 170 175 178 170 166 164 151 154 165 155 140 127 134 132 121 144 179 183 162 177 166 170 194 234 223 223 232 243 266
47 18 4 1 349 336 329 293 218 203 179 165 166 168 164 162 162 160 154 153 149 152 159 152 139 136 136 126 138 124 130 196 223 151 173 166 160 203 210 227 212 244 249
28 13 353 341 347 28 31 346 319 176 160 157 154 154 151 153 147 155 153 148 147 158 156 144 132 130 127 122 106 115 130 151 181 341 216 158 147 200 184 197 37 259 253
350 346 353 347 351 354 10 79 158 193 192 170 156 158 153 147 147 145 135 130 126 127 135 136 134 138 137 135 132 136 141 150 164 188 183 124 152 213 179 117 218 236 234
346 332 338 345 340 336 345 334 307 188 176 164 157 157 160 158 152 145 137 138 137 139 139 140 147 148 135 137 126 135 153 152 141 125 142 157 198 198 155 232 236 247 217
326 342 348 329 326 324 325 324 311 292 200 174 175 177 173 170 164 159 154 150 149 149 147 143 140 142 141 143 146 143 142 120 121 127 121 118 209 236 224 236 237 237 251
340 350 352 347 345 336 323 315 303 299 276 229 201 196 183 173 165 160 155 149 147 145 144 145 138 146 154 152 151 135 114 127 148 145 109 93 95 163 202 238 232 226 225
349 349 346 342 337 328 296 268 255 257 251 240 237 205 187 176 174 161 158 156 148 145 148 148 151 157 140 154 153 132 141 169 176 164 145 130 96 87 131 173 199 202 213
337 334 323 306 298 299 292 296 288 230 217 225 226 211 195 187 179 172 163 158 161 150 159 161 171 152 156 168 153 152 151 165 169 169 171 162 119 104 90 80 68 45 27
332 328 319 312 297 273 277 269 272 256 230 224 211 203 194 187 177 172 173 167 169 170 166 171 176 160 172 170 159 169 134 137 147 161 174 172 164 158 143 117 85 63 42
285 281 288 285 287 282 272 263 266 254 246 238 221 204 195 183 175 178 174 172 168 167 165 172 164 170 168 168 154 132 144 150 150 164 171 174 173 200 169 148 140 115 64
309 307 308 299 297 296 238 251 266 246 240 240 230 202 188 187 183 179 171 168 171 159 153 159 176 174 166 182 178 153 153 166 169 173 185 200 196 202 185 176 165 160 154
304 304 304 299 298 297 291 277 267 251 254 228 212 197 188 187 185 167 167 152 138 146 151 164 173 174 177 191 197 176 170 186 185 191 192 202 210 198 188 171 176 183 160
309 307 304 293 295 293 286 280 269 267 239 229 204 198 191 178 165 163 150 147 151 161 165 170 173 185 185 193 204 195 187 184 183 191 195 202 203 197 192 169 184 181 158
301 296 293 287 283 281 275 278 272 266 259 220 206 195 178 170 163 159 156 156 164 167 170 174 176 188 188 199 194 205 191 187 182 190 189 202 201 202 194 179 183 166 158
307 303 298 288 280 281 279 263 269 272 252 222 206 182 175 167 161 159 162 163 173 172 170 179 186 188 192 196 190 192 208 194 190 192 196 197 193 193 184 193 188 159 170
305 302 291 303 293 286 280 264 258 248 240 211 182 175 174 167 154 160 168 172 176 176 172 184 184 182 198 207 196 185 185 184 180 152 152 172 169 178 181 187 185 174 180
309 303 304 295 286 281 265 252 246 226 217 186 176 173 164 159 157 144 138 172 161 177 179 178 174 190 197 196 197 199 198 196 184 160 176 188 192 190 195 199 201 199 201